Regional Weather Roundup
Issued by NWS

Home | Current Version | Previous Version | Graphics & Text | Print | Product List | Glossary Off
Versions: 1 2 3 4 5 6 7 8 9 10 11 12 13 14 15 16 17 18 19 20 21 22 23 24 25 26 27 28 29 30 31 32 33 34 35 36 37 38 39 40 41 42 43 44 45 46 47 48 49 50

768
ASUS43 KMKX 240121
RWRWI

WISCONSIN REGIONAL WEATHER ROUNDUP
NATIONAL WEATHER SERVICE MILWAUKEE/SULLIVAN WI
800 PM CDT SAT SEP 23 2017

NOTE: "FAIR" INDICATES FEW OR NO CLOUDS BELOW 12,000 FEET WITH NO
SIGNIFICANT WEATHER AND/OR OBSTRUCTIONS TO VISIBILITY.

WIZ001-002-006>008-014>016-023>028-240200-
NORTHWEST WISCONSIN

CITY           SKY/WX    TMP DP  RH WIND       PRES   REMARKS
SUPERIOR ARPT  CLOUDY    67  66  99 CALM      29.96R
ASHLAND        MOCLDY    75  70  84 W3        29.96S
HAYWARD        CLOUDY    74  69  85 SW3       29.99R
SIREN          CLOUDY    76  71  82 E3        29.96R
CUMBERLAND     CLOUDY    73  68  83 CALM      29.98R
RICE LAKE      CLOUDY    77  68  74 SE5       29.99R
CHETEK         CLOUDY    76  70  81 E5        29.97S
LADYSMITH      MOCLDY    76  68  74 SE3       30.02R
EAU CLAIRE     PTCLDY    79  67  66 S3        29.96R HX  81
MENOMONIE      CLOUDY    77  69  77 SE5       29.96R
NEW RICHMOND   MOCLDY    77  67  72 E5        29.95S
OSCEOLA        MOCLDY    76  70  82 E6        29.96S
$$

WIZ003>005-009-010-017-018-240200-
NORTH CENTRAL WISCONSIN

CITY           SKY/WX    TMP DP  RH WIND       PRES   REMARKS
MANITOWISH WTR PTCLDY    70  70 100 S3        30.02
ARBOR VITAE    PTCLDY    72  66  82 CALM      30.03S
WOODRUFF       PTCLDY    72  66  82 CALM      30.03S
RHINELANDER    MOCLDY    72  67  84 CALM      30.05S
EAGLE RIVER    CLOUDY    71  63  74 CALM      30.04S
LAND O LAKES   PTCLDY    68  66  91 CALM      30.05S
PHILLIPS       PTCLDY    71  69  92 CALM      30.02R
TOMAHAWK       PTCLDY    68  65  89 CALM      30.04S
MEDFORD        PTCLDY    73  65  77 SE3       30.03R
MERRILL        CLOUDY    73  67  82 CALM      30.03S
$$

WIZ029-030-035-036-043>047-240200-
CENTRAL WISCONSIN

CITY           SKY/WX    TMP DP  RH WIND       PRES   REMARKS
WAUSAU         PTCLDY    77  65  66 SE5       30.01S
MOSINEE        MOCLDY    75  66  73 SE3       30.04S
MARSHFIELD     PTCLDY    76  64  66 S5        30.01S
STEVENS POINT  CLEAR     70  67  90 SE3       30.03S
WAUPACA        CLEAR     75  71  85 CALM      30.02S
WAUTOMA        CLEAR     73  69  87 CALM      30.02S
WISC RAPIDS    CLEAR     72  67  84 SE6       30.02S
CAMP DOUGLAS   CLEAR     74  66  77 S3        30.00S
$$

WIZ011>013-019>022-031-037>040-048>050-240200-
NORTHEAST WISCONSIN

CITY           SKY/WX    TMP DP  RH WIND       PRES   REMARKS
ANTIGO         CLOUDY    71  66  85 S3        30.05S
SHAWANO        CLEAR     79  66  64 S3        30.02S HX  81
OCONTO         CLEAR     74  68  81 S3        30.02S
STURGEON BAY   CLOUDY    76  66  71 S9        30.04S
GREEN BAY      CLEAR     77  70  79 S7        30.03R
MANITOWOC      CLEAR     72  66  81 SE5       30.06R
APPLETON       PTCLDY    77  64  65 S6        30.03R
CLINTONVILLE   CLEAR     72  66  83 CALM      30.02S
OSHKOSH        CLEAR     74  68  81 SE6       30.03R
$$

WIZ032>034-041-042-053>061-240200-
SOUTHWEST WISCONSIN

CITY           SKY/WX    TMP DP  RH WIND       PRES   REMARKS
LA CROSSE      CLEAR     82  65  56 S6        29.96R HX  84
SPARTA         CLOUDY    75  68  77 E6        30.00R
VIROQUA        CLEAR     79  65  62 SE7       30.02S HX  81
BOSCOBEL       CLEAR     75  67  76 CALM      29.99S
PRAIRIE DU CHI CLEAR     79  62  56 E5        29.98S HX  80
PLATTEVILLE    CLEAR     80  64  57 SE7       30.03R HX  81
$$

WIZ056-057-062-063-064-067-068-240200-
SOUTH CENTRAL WISCONSIN

CITY           SKY/WX    TMP DP  RH WIND       PRES   REMARKS
REEDSBURG      CLEAR     77  66  68 CALM      30.01S
BARABOO/DELLS  CLEAR     74  64  69 CALM      30.02S
LONE ROCK      CLEAR     74  65  73 CALM      30.00S
MINERAL POINT  CLEAR     79  59  50 SE3       30.04S HX  80
MADISON        CLEAR     76  67  73 CALM      30.02S
MIDDLETON      CLEAR     76  66  70 CALM      30.03S
WATERTOWN      CLEAR     78  67  68 SE5       30.03S HX  80
MONROE         CLEAR     81  61  50 SE7       30.04S HX  81
JANESVILLE     PTCLDY    81  63  54 VRB6      30.03R HX  82
$$

WIZ051-052-058>065-066-070>072-240200-
SOUTHEAST WISCONSIN

CITY           SKY/WX    TMP DP  RH WIND       PRES   REMARKS
MILWAUKEE      CLEAR     79  66  64 S5        30.05R HX  81
WAUKESHA       CLEAR     79  63  57 SE7       30.06S HX  80
MILWAUKEE/TIMM CLEAR     81  61  50 SE5       30.06R HX  81
RACINE         CLEAR     78  67  68 S6        30.06S HX  80
BURLINGTON     CLEAR     76  66  71 CALM      30.05S
KENOSHA        CLEAR     78  65  63 SE6       30.05S HX  80
FOND DU LAC    CLEAR     76  66  71 S7        30.04R
SHEBOYGAN      CLEAR     72  68  87 CALM      30.05S
WEST BEND        N/A     73  66  78 CALM      30.05S
JUNEAU         CLEAR     77  67  72 E5        30.05S
$$

LSZ147-162-240200-
LAKE SUPERIOR

STATION/POSITION TIME  TEMP    WIND        PRES    WAVE
                       AIR SEA DIR/SP/G            HT/PER
                 (UTC) (F)     (DEG/KT/KT) (MB)    (FT/S)
W MID LAKE BUOY  0050   60 57  120/  6/  8 1014.2R   1
DEVILS ISLAND    0100   70     230/ 10/ 13 1015.2R
SAXON HARBOR     0040   73     190/  3/  3 1013.9R
$$

LMZ867-665-643>646-240200-
LAKE MICHIGAN

STATION/POSITION TIME  TEMP    WIND        PRES    WAVE
                       AIR SEA DIR/SP/G            HT/PER
                 (UTC) (F)     (DEG/KT/KT) (MB)    (FT/S)
S GREEN BAY BUOY 0030   75 70  160/  6/  8 1016.5R
N MID LAKE BUOY  0050   69 67  200/ 10/ 10 1017.5R   2/ 4
NORTHPORT PIER   0040   77     170/  4/  8 1016.3S
KEWAUNEE LAKESHO 0054   66     170/  5/  6 1016.6R
SHEBOYGAN LAKESH 0100   74     200/  5/  6 1017.1R
PORT WASHINGTON  0040   74     210/  2/  4 1018.3R
ATWATER BUOY     0009   70 65  180/  8/  8 1017.5F
MILWAUKEE LAKESH 0100   71        CALM       N/A
S MID LAKE BUOY  0050   76 72  100/  4/  4 1017.6R   0
KENOSHA   LAKESH 0100   77     180/  7/  8 1016.9
$$

TC  - TEMPERATURE IN CELSIUS
VSB - VISIBILITY IN STATUTE MILES
WCI - WIND CHILL INDEX
HX  - HEAT INDEX





USA.gov is the U.S. government's official web portal to all federal, state and local government web resources and services.